EHI
8 12 17 17 11 7 6 4 4 4 4 3 2 1 1 2 3 4 2 1 1 2 2 1 0 0 0 0 0 0 0 0 0 0 0 0 0 0 0 0 0 0 0
12 15 21 22 17 11 9 9 8 7 7 7 5 3 1 1 2 3 2 1 1 2 2 1 0 0 0 0 0 0 0 0 0 0 0 0 0 0 0 0 0 0 0
14 18 23 27 23 17 14 14 13 12 11 11 8 4 1 0 1 1 1 1 1 2 1 1 1 0 0 0 0 0 0 0 0 0 0 0 0 0 0 0 0 0 0
13 17 23 30 28 22 18 17 16 15 13 12 8 3 0 0 1 1 1 1 1 1 0 0 0 0 0 0 0 0 0 0 0 0 0 0 0 0 0 0 0 0 0
13 16 24 31 32 29 24 19 16 15 14 11 7 2 1 1 2 2 1 1 1 1 0 0 0 0 0 0 0 0 0 0 0 0 0 0 0 0 0 0 0 0 0
15 18 24 30 33 32 27 21 16 14 12 10 6 3 2 2 3 3 3 2 2 1 0 0 0 0 0 0 0 0 0 0 0 0 0 0 0 0 0 0 0 0 0
18 20 24 29 32 31 27 22 17 14 11 9 6 4 3 3 3 3 3 3 2 1 0 0 0 0 0 0 0 0 0 0 0 0 0 0 0 0 0 0 0 0 0
19 22 24 26 28 28 25 20 16 13 11 9 8 7 6 5 4 4 4 3 2 1 0 0 0 0 0 0 0 0 0 0 0 0 0 0 0 0 0 0 0 0 0
18 19 20 20 21 22 20 15 12 11 11 10 10 9 8 7 5 4 4 2 1 0 0 0 0 0 0 0 0 0 0 0 0 0 0 0 0 0 0 0 0 0 0
16 16 17 17 17 16 13 9 8 8 8 8 8 7 6 5 4 3 2 1 0 0 0 0 0 0 0 0 0 0 0 0 0 0 0 0 0 0 0 0 0 0 0
15 16 17 17 17 14 10 8 7 7 7 6 4 2 2 2 2 1 0 0 0 0 0 0 0 0 0 0 0 0 0 0 0 0 0 0 0 0 0 0 0 0 0
15 16 16 15 14 12 10 9 9 8 6 4 2 1 1 1 0 0 0 0 0 0 0 0 0 0 0 0 0 0 0 0 0 0 0 0 0 0 0 0 0 0 0
12 13 13 13 11 11 10 9 8 6 4 3 1 1 1 0 0 0 0 0 0 0 0 0 0 0 0 0 0 0 0 0 0 0 0 0 0 0 0 0 0 0 0
8 9 10 11 11 11 10 7 5 3 2 1 0 0 0 0 0 0 0 0 0 1 1 0 0 0 0 0 0 0 0 0 0 0 0 0 0 0 0 0 0 0 0
5 6 8 9 11 10 7 4 2 2 1 1 0 0 0 0 0 0 0 0 0 1 1 0 0 0 0 0 0 0 0 0 0 0 0 0 0 0 0 0 0 0 0
4 5 6 7 8 8 5 2 1 2 2 1 0 0 0 0 0 0 0 0 0 1 1 0 0 0 0 0 0 0 0 0 0 0 0 0 0 0 0 0 0 0 0
4 5 5 4 5 4 3 1 1 1 2 1 0 0 0 0 0 0 0 0 0 0 0 0 0 0 0 0 0 0 0 0 0 0 0 0 0 0 0 0 0 0 0
4 4 3 2 1 1 1 1 1 1 0 0 0 0 0 0 0 0 0 0 0 0 0 0 0 0 0 0 0 0 0 0 0 0 0 0 0 0 0 0 0 0 0
2 2 1 0 0 0 0 0 0 0 0 0 0 0 0 0 0 0 0 0 0 0 0 0 0 0 0 0 0 0 0 0 0 0 0 0 0 0 0 0 0 0 0
1 1 0 0 0 0 0 0 0 0 0 0 0 0 0 0 0 0 0 0 0 0 0 0 0 0 0 0 0 0 0 0 0 0 0 0 0 0 0 0 0 0 0
1 0 0 0 0 0 0 0 0 0 0 0 0 0 0 0 0 0 0 0 0 0 0 0 0 0 0 0 0 0 0 0 0 0 0 0 0 0 0 0 0 0 0
0 0 0 0 0 0 0 0 0 0 0 0 0 0 0 0 0 0 0 0 0 0 0 0 0 0 0 0 0 0 0 0 0 0 0 0 0 0 0 0 0 0 0
0 0 0 0 0 0 0 0 0 0 0 0 0 0 0 0 0 0 0 0 0 0 0 0 0 0 0 0 0 0 0 0 0 0 0 0 0 0 0 0 0 0 0
0 0 0 0 0 0 0 0 0 0 0 0 0 0 0 0 0 0 0 0 0 0 0 0 0 0 0 0 0 0 0 0 0 0 0 0 0 0 0 0 0 0 0
0 0 0 0 0 0 0 0 0 0 0 0 0 0 0 0 0 0 0 0 0 0 0 0 0 0 0 0 0 0 0 0 0 0 0 0 0 0 0 0 0 0 0
0 0 0 0 0 0 0 0 0 0 0 0 0 0 0 0 0 0 0 0 0 0 0 0 0 0 0 0 0 0 0 0 0 0 0 0 0 0 0 0 0 0 0
Wind_Speed
9 11 12 12 13 13 13 13 13 13 13 13 13 13 13 13 13 12 12 12 12 11 11 12 12 12 12 12 12 12 11 11 11 11 10 10 10 10 9 8 6 7 9
12 13 13 12 13 13 13 13 13 13 13 13 13 13 13 13 13 13 12 12 12 12 12 12 12 12 12 12 12 11 11 11 11 10 8 8 9 9 9 9 8 7 8
13 13 14 13 13 13 13 13 13 13 13 13 13 13 13 13 13 12 12 12 12 12 12 12 12 12 12 12 11 11 10 10 9 7 4 6 8 9 9 9 9 9 8
13 13 13 14 13 13 14 13 13 13 13 13 13 13 13 12 12 12 12 12 12 12 12 12 12 11 11 11 10 10 10 9 8 3 3 5 6 8 7 7 7 7 7
12 12 13 13 13 14 14 14 13 13 13 13 13 13 12 12 12 12 12 12 11 11 11 11 11 10 10 10 9 9 9 8 5 3 5 4 5 7 6 6 6 6 6
13 12 14 12 14 14 13 13 13 13 13 13 13 12 12 12 12 11 11 11 11 10 10 10 10 9 9 9 9 8 7 5 2 4 4 4 4 6 5 5 4 4 4
12 12 14 12 13 13 13 13 13 12 12 12 12 12 12 12 12 11 11 11 10 10 10 9 8 8 8 8 8 7 6 3 2 3 3 4 5 5 4 4 3 3 3
12 11 13 13 12 13 13 12 12 12 12 12 11 11 11 11 11 11 10 10 9 9 9 8 8 8 7 7 7 6 5 2 2 3 3 3 5 4 4 4 4 3 3
11 11 11 12 12 12 12 12 11 11 12 11 11 11 10 10 10 10 9 9 9 8 8 8 7 7 7 6 6 6 4 3 1 2 2 3 4 3 3 3 3 3 3
9 10 10 10 10 10 11 11 11 11 11 11 11 10 10 9 9 9 9 8 8 8 7 7 6 6 6 6 5 5 3 1 1 1 1 3 4 3 3 3 3 3 4
9 8 9 9 9 9 9 10 10 10 10 10 9 9 7 6 7 6 8 8 7 7 7 6 6 6 5 5 4 3 1 0 1 1 2 4 3 3 3 4 4 4 4
10 9 8 9 8 8 7 7 6 6 6 6 6 6 5 4 4 5 8 7 7 6 6 5 5 4 2 2 3 2 1 0 0 1 2 3 3 3 4 5 5 5 5
10 8 7 8 8 7 6 5 4 3 4 5 5 5 4 4 4 3 3 4 4 3 3 3 3 1 1 1 0 0 1 1 0 0 2 3 3 4 5 5 6 6 6
9 8 7 7 7 7 6 5 4 4 3 3 4 4 3 3 2 3 2 2 2 1 1 1 0 1 0 0 0 0 0 1 1 1 2 3 4 5 5 6 6 7 7
10 9 7 7 7 6 6 4 4 4 4 4 3 3 3 3 3 2 2 2 1 1 1 0 0 0 0 0 1 1 1 1 1 1 0 2 4 5 5 6 7 8 8
10 9 8 7 7 6 5 5 4 4 4 4 3 4 3 2 2 2 2 1 1 1 0 0 0 1 1 1 1 1 2 2 2 2 2 1 1 4 5 7 8 8 9
10 9 8 7 7 7 6 5 4 4 4 3 3 4 3 3 3 2 2 1 1 1 0 0 0 1 1 1 1 2 2 2 2 2 2 2 1 1 4 6 7 8 9
9 9 8 6 7 7 6 5 4 4 4 3 3 3 3 3 3 2 2 1 1 1 0 0 1 1 1 2 2 1 2 2 3 3 2 2 2 3 2 4 7 8 9
9 9 9 7 7 6 6 5 4 4 3 3 3 3 3 3 2 2 1 1 1 1 1 0 1 1 2 2 2 2 2 2 2 3 3 3 3 3 3 3 5 7 8
8 8 9 8 7 7 5 5 4 4 3 3 3 2 3 2 2 2 1 1 1 1 1 1 1 1 2 2 2 3 3 2 2 3 3 3 3 4 4 5 4 4 6
8 9 9 9 8 7 5 5 4 4 3 3 2 3 3 2 2 2 1 1 1 1 1 1 1 1 1 1 2 3 2 3 3 3 3 3 4 4 4 5 4 5 4
9 10 9 9 9 8 6 5 3 4 3 3 2 2 2 2 2 1 2 1 2 1 2 2 1 1 1 1 2 2 3 3 2 3 3 3 4 4 4 5 5 5 5
9 9 8 9 9 9 7 5 4 3 3 3 3 2 2 2 2 1 1 2 2 2 2 2 2 2 2 1 2 2 3 3 3 2 4 4 4 4 4 4 5 6 6
8 7 8 9 9 8 8 7 8 6 5 4 3 3 3 2 2 2 2 1 2 2 2 2 2 2 3 2 2 2 3 3 4 4 3 3 5 5 5 5 5 6 6
6 6 7 8 8 8 8 8 8 6 4 3 3 4 3 2 2 2 2 1 1 2 2 2 2 3 3 3 2 2 3 3 5 5 6 5 4 4 5 5 5 5 6
5 6 7 8 8 8 8 8 8 7 5 5 5 4 3 2 2 2 2 1 1 1 2 2 2 3 3 4 3 3 3 3 3 4 6 6 6 5 5 5 5 5 5
Wind_Direction
153 147 137 136 132 128 125 123 123 124 123 121 119 116 114 112 111 109 108 106 103 101 99 98 96 94 93 91 87 83 82 79 77 77 76 75 76 77 75 68 68 78 71
146 144 136 136 134 130 127 124 124 123 121 119 117 116 114 112 110 108 107 106 103 100 97 96 96 93 91 89 87 85 84 81 78 78 80 85 80 76 75 67 52 62 67
145 142 141 137 133 130 126 123 124 124 122 120 117 115 115 113 112 110 107 105 101 98 95 93 94 92 89 87 86 84 83 82 81 80 90 88 87 79 79 75 70 67 64
143 143 142 135 133 130 127 125 124 124 121 119 118 116 115 114 112 110 106 103 100 97 94 93 92 91 89 89 88 86 83 80 78 82 86 77 82 79 77 74 69 64 59
142 142 133 135 133 131 129 127 125 124 122 120 119 116 114 113 111 108 106 103 100 97 96 94 92 92 91 89 89 87 84 81 80 81 75 71 75 76 71 69 65 59 52
142 140 133 135 132 130 128 127 126 125 123 122 120 118 116 115 111 108 106 103 101 99 97 94 93 92 92 90 89 87 85 83 116 79 71 67 70 72 67 67 63 56 46
141 136 136 131 130 129 127 127 127 125 123 123 121 119 118 116 112 110 108 107 105 102 100 99 95 92 92 91 88 85 83 69 72 81 72 64 57 53 51 54 50 42 32
140 138 135 126 124 126 125 123 123 122 122 122 122 121 119 117 114 111 110 109 107 105 103 102 101 97 92 90 87 85 76 41 90 76 70 65 53 44 42 37 30 23 11
140 140 139 139 132 123 120 120 119 119 118 117 116 116 115 115 115 113 110 108 106 105 104 101 99 98 94 89 85 83 74 20 30 66 59 55 51 31 22 15 8 359 354
140 141 141 141 139 137 129 115 113 114 114 112 110 108 110 113 113 113 114 108 106 104 102 99 96 96 94 91 88 85 82 239 69 68 52 60 44 15 360 355 350 344 336
143 144 144 141 138 135 130 123 120 116 113 118 116 113 124 130 125 122 103 103 104 103 101 99 97 95 100 100 89 93 183 198 72 38 43 45 22 359 347 340 334 328 324
153 149 148 145 141 137 132 134 132 128 129 131 131 135 135 125 112 109 101 95 97 101 107 101 103 120 157 133 124 183 204 63 28 52 53 34 354 344 336 329 324 322 317
154 148 149 145 144 141 135 134 127 126 128 128 130 133 130 123 124 122 123 123 123 129 127 126 151 135 127 89 129 170 351 337 326 11 55 27 337 328 328 326 321 318 313
158 153 150 148 147 144 138 134 136 135 135 130 133 136 135 127 128 122 124 119 130 130 123 136 132 118 137 142 202 278 259 294 315 349 42 23 332 321 321 320 318 313 311
163 157 153 150 150 147 141 139 140 140 139 133 132 136 137 136 131 125 127 131 125 122 145 147 231 107 265 298 287 280 282 289 303 309 35 31 335 328 323 323 321 316 315
169 163 157 154 150 151 152 149 143 140 136 137 138 142 144 136 135 140 133 126 125 121 99 248 299 289 300 303 298 292 291 295 294 301 306 356 353 333 327 326 324 322 319
173 166 162 157 155 156 153 149 143 144 144 141 140 148 148 143 145 146 142 140 130 139 163 257 272 284 299 288 282 291 296 292 285 298 301 305 311 327 321 322 327 327 324
172 166 162 160 161 160 154 150 146 150 147 144 146 149 151 149 152 152 151 139 137 162 206 240 272 274 280 286 290 291 285 279 272 289 288 295 307 315 325 331 329 327 325
175 168 164 164 163 159 152 149 146 145 145 145 150 151 152 155 159 158 152 141 163 182 205 246 273 285 289 300 301 298 297 288 281 277 281 286 295 302 309 326 320 316 319
177 173 170 168 165 157 152 147 142 142 144 146 148 146 154 159 166 163 160 161 182 202 215 231 252 281 298 308 301 293 282 272 269 282 286 287 294 301 303 307 305 303 308
179 178 176 174 169 164 160 161 162 164 158 153 145 150 160 159 169 175 175 174 199 220 238 247 250 251 288 308 286 288 271 255 263 276 280 291 296 301 302 303 306 307 304
185 184 181 180 174 174 172 164 161 152 158 153 151 154 155 157 165 183 191 197 206 220 226 233 233 246 261 277 287 289 284 258 247 269 272 282 291 295 295 300 304 303 306
189 188 185 182 179 177 168 154 140 134 139 161 168 166 170 172 173 190 211 215 215 227 228 230 234 238 244 247 276 286 289 289 305 265 273 278 288 294 296 298 297 302 304
190 186 187 182 179 175 170 171 169 176 180 185 176 172 172 178 183 188 204 221 224 230 230 230 235 245 245 243 250 268 283 300 291 291 282 287 293 293 297 298 298 302 305
186 183 184 179 177 175 178 179 184 188 182 164 165 171 175 174 181 184 197 215 235 242 240 238 236 239 240 247 249 259 263 272 272 278 288 299 295 296 304 303 299 301 306
176 177 178 177 176 176 178 182 188 186 177 170 176 176 179 175 178 180 199 212 229 249 256 252 246 242 245 249 252 252 258 262 272 276 284 297 300 304 306 300 294 296 301